Location: Greenwich
(51.4790°N, 0.0090°E)
Time: 08:42:14
(UTC+01:00)

Explorer 7 - Pass Details

Date: 22 April 2024
Orbit: 467 x 625 km, 50.3° (Epoch: 24 May)

Event Time Altitude Azimuth Distance (km) Brightness Sun altitude
Rises 10:50:39 0° 206° (SSW) 2,872 10.7 43.2°
Reaches altitude 10° 10:53:21 10° 191° (S) 1,986 10.2 43.5°
Maximum altitude 10:56:49 21° 142° (SE) 1,397 10.4 43.9°
Drops below altitude 10° 11:00:19 10° 93° (E) 2,009 10.3 44.2°
Sets 11:03:04 0° 78° (ENE) 2,915 10.8 44.5°
